Weather History for KCOU - January, 2014

Change the Weather History Date:

Thursday, January 23, 2014

  Actual Average Record
Temperature  
Mean Temperature 8 °F 30 °F  
Max Temperature 15 °F 39 °F 77 °F (1909)
Min Temperature 1 °F 21 °F -10 °F (1963)
Degree Days  
Heating Degree Days 57 35  
Month to date heating degree days 913 818  
Since 1 July heating degree days 3000 2813  
Cooling Degree Days 0 0  
Month to date cooling degree days 0 0  
Year to date cooling degree days 0 0  
Moisture  
Dew Point -7 °F    
Average Humidity 54    
Maximum Humidity 69    
Minimum Humidity 38    
Precipitation  
Precipitation 0.00 in 0.06 in 1.75 in (1938)
Month to date precipitation 0.90 1.42  
Year to date precipitation 0.90 1.42  
Snow  
Snow 0.00 in 0.20 in 5.50 in (1896)
Month to date snowfall 7.5 4.5  
Since 1 July snowfall 9.9 9.8  
Snow Depth 0.00 in    
Sea Level Pressure  
Sea Level Pressure 30.71 in    
Wind  
Wind Speed 12 mph (NW)    
Max Wind Speed 23 mph    
Max Gust Speed 30 mph    
Visibility 10 miles    
Events      
T = Trace of Precipitation, MM = Missing Value Source: NWS Daily Summary

Daily Weather History Graph

Daily Weather History Graph

Search for Another Location

Airport or City:

Trip Planner

Search our weather history database for the weather conditions in past years. The results will help you decide how hot, cold, wet, or windy it might be!

Date:

Astronomy

Jan. 23, 2014 Rise Set
Actual Time 7:21 AM CST 5:20 PM CST
Civil Twilight 6:53 AM CST 5:48 PM CST
Nautical Twilight 6:20 AM CST 6:21 PM CST
Astronomical Twilight 5:49 AM CST 6:52 PM CST
Moon No Moon Rise 11:01 AM CST (1/23)
Length of Visible Light 10h 55m
Length of Day
9h 58m
Waning Gibbous, 55% of the Moon is Illuminated
Jan 23
Waning Gibbous
Jan 23
Last Quarter
Jan 30
New
Feb 6
First Quarter
Feb 14
Full

Hourly Weather History & Observations

Time (CST) Temp. Windchill Dew Point Humidity Pressure Visibility Wind Dir Wind Speed Gust Speed Precip Events Conditions
12:54 AM 7.0 °F -13.6 °F -7.1 °F 53% 30.48 in 10.0 mi NNW 21.9 mph - N/A   Clear
1:54 AM 6.1 °F -14.8 °F -7.1 °F 55% 30.51 in 10.0 mi NNW 21.9 mph 26.5 mph N/A   Clear
2:54 AM 3.9 °F -15.6 °F -7.1 °F 60% 30.55 in 10.0 mi NNW 17.3 mph - N/A   Clear
3:54 AM 1.9 °F -18.1 °F -8.0 °F 63% 30.57 in 10.0 mi NNW 17.3 mph - N/A   Clear
4:54 AM 1.9 °F -16.9 °F -8.0 °F 63% 30.61 in 10.0 mi NNW 15.0 mph - N/A   Clear
5:54 AM 1.0 °F -16.6 °F -9.0 °F 63% 30.64 in 10.0 mi NNW 12.7 mph - N/A   Clear
6:54 AM 1.0 °F -18.0 °F -9.0 °F 63% 30.68 in 10.0 mi NNW 15.0 mph - N/A   Clear
7:54 AM 1.0 °F -15.8 °F -8.0 °F 66% 30.71 in 10.0 mi NW 11.5 mph - N/A   Clear
8:54 AM 1.9 °F -18.1 °F -8.0 °F 63% 30.75 in 10.0 mi NW 17.3 mph - N/A   Clear
9:54 AM 5.0 °F -9.1 °F -8.0 °F 55% 30.79 in 10.0 mi WNW 9.2 mph - N/A   Clear
10:54 AM 7.0 °F -10.4 °F -8.0 °F 51% 30.80 in 10.0 mi NNW 15.0 mph - N/A   Clear
11:54 AM 9.0 °F -7.3 °F -8.0 °F 46% 30.79 in 10.0 mi WNW 13.8 mph - N/A   Clear
12:54 PM 10.9 °F -4.1 °F -8.0 °F 42% 30.77 in 10.0 mi NW 12.7 mph - N/A   Clear
1:54 PM 12.9 °F -0.9 °F -9.0 °F 37% 30.76 in 10.0 mi NW 11.5 mph 21.9 mph N/A   Clear
2:54 PM 14.0 °F -0.2 °F -8.0 °F 37% 30.76 in 10.0 mi NW 12.7 mph - N/A   Clear
3:54 PM 14.0 °F 0.5 °F -7.1 °F 39% 30.77 in 10.0 mi WNW 11.5 mph - N/A   Clear
4:54 PM 12.9 °F -0.2 °F -7.1 °F 41% 30.77 in 10.0 mi WNW 10.4 mph - N/A   Clear
5:54 PM 10.0 °F 0.4 °F -7.1 °F 46% 30.78 in 10.0 mi WNW 5.8 mph - N/A   Clear
6:54 PM 8.1 °F -2.0 °F -6.0 °F 53% 30.79 in 10.0 mi WNW 5.8 mph - N/A   Clear
7:54 PM 8.1 °F 1.4 °F -6.0 °F 53% 30.78 in 10.0 mi West 3.5 mph - N/A   Clear
8:54 PM 7.0 °F 0.1 °F -6.0 °F 55% 30.77 in 10.0 mi West 3.5 mph - N/A   Clear
9:54 PM 5.0 °F -4.1 °F -5.1 °F 63% 30.76 in 10.0 mi WSW 4.6 mph - N/A   Clear
10:54 PM 3.9 °F -6.9 °F -5.1 °F 66% 30.75 in 10.0 mi WSW 5.8 mph - N/A   Clear
11:54 PM 1.9 °F -7.6 °F -5.1 °F 72% 30.73 in 10.0 mi SW 4.6 mph - N/A   Clear